Tracking 29892 objects as of 21-Nov-2024
HD Live streaming from Space Station
objects crossing your sky now

STARLINK-30842

Track STARLINK-30842 now!
10-day predictions
STARLINK-30842 is classified as:


NORAD ID: 58357
Int'l Code: 2023-177G
Perigee: 565.3 km
Apogee: 567.1 km
Inclination: 43.0 °
Period: 95.8 minutes
Semi major axis: 6937 km
RCS: Unknown
Launch date: November 18, 2023
Source: United States (US)
Launch site: AIR FORCE EASTERN TEST RANGE (AFETR)
Your satellite tracking list
Your tracking list is empty




NASA's NSSDC Master Catalog

Two Line Element Set (TLE):
1 58357U 23177G   24325.62355253  .00000977  00000-0  87358-4 0  9993
2 58357  43.0024  33.7521 0001303 263.9882  96.0811 15.02544158 57067
Source of the keplerian elements: AFSPC